Time,TemperatureF,DewpointF,PressureIn,WindDirection,WindDirectionDegrees,WindSpeedMPH,WindSpeedGustMPH,Humidity,HourlyPrecipIn,Conditions,Clouds,dailyrainin,SoftwareType,DateUTC
2013-06-12 00:12:00,56.0,48.0,-100.00,North,-999,-999.0,-999.0,74,0.00,,,0.00,,2013-06-12 07:12:00,
2013-06-12 00:22:00,56.0,48.0,-100.00,North,-999,-999.0,-999.0,74,0.00,,,0.00,,2013-06-12 07:22:00,
2013-06-12 00:33:00,56.0,48.0,-100.00,North,-999,-999.0,-999.0,74,0.00,,,0.00,,2013-06-12 07:33:00,
2013-06-12 00:43:00,55.0,48.0,-100.00,North,-999,-999.0,-999.0,77,0.00,,,0.00,,2013-06-12 07:43:00,
2013-06-12 01:12:00,55.0,48.0,-100.00,North,-999,-999.0,-999.0,77,0.00,,,0.00,,2013-06-12 08:12:00,
2013-06-12 01:22:00,55.0,48.0,-100.00,North,-999,-999.0,-999.0,77,0.00,,,0.00,,2013-06-12 08:22:00,
2013-06-12 01:33:00,55.0,48.0,-100.00,North,-999,-999.0,-999.0,77,0.00,,,0.00,,2013-06-12 08:33:00,
2013-06-12 02:11:00,55.0,48.0,-100.00,North,-999,-999.0,-999.0,78,0.00,,,0.00,,2013-06-12 09:11:00,
2013-06-12 02:22:00,55.0,48.0,-100.00,North,-999,-999.0,-999.0,78,0.00,,,0.00,,2013-06-12 09:22:00,
2013-06-12 02:33:00,55.0,48.0,-100.00,North,-999,-999.0,-999.0,78,0.00,,,0.00,,2013-06-12 09:33:00,
2013-06-12 02:42:00,55.0,48.0,-100.00,North,-999,-999.0,-999.0,78,0.00,,,0.00,,2013-06-12 09:42:00,
2013-06-12 02:43:00,54.0,48.0,-100.00,North,-999,-999.0,-999.0,79,0.00,,,0.00,,2013-06-12 09:43:00,
2013-06-12 03:11:00,54.0,48.0,-100.00,North,-999,-999.0,-999.0,79,0.00,,,0.00,,2013-06-12 10:11:00,
2013-06-12 03:23:00,54.0,48.0,-100.00,North,-999,-999.0,-999.0,79,0.00,,,0.00,,2013-06-12 10:23:00,
2013-06-12 03:33:00,54.0,48.0,-100.00,North,-999,-999.0,-999.0,79,0.00,,,0.00,,2013-06-12 10:33:00,
2013-06-12 03:43:00,54.0,48.0,-100.00,North,-999,-999.0,-999.0,80,0.00,,,-99.99,,2013-06-12 10:43:00,
2013-06-12 04:12:00,54.0,48.0,-100.00,North,-999,-999.0,-999.0,80,0.00,,,-99.99,,2013-06-12 11:12:00,
2013-06-12 04:24:00,54.0,48.0,-100.00,North,-999,-999.0,-999.0,80,0.00,,,-99.99,,2013-06-12 11:24:00,
2013-06-12 04:33:00,54.0,48.0,-100.00,North,-999,-999.0,-999.0,80,0.00,,,-99.99,,2013-06-12 11:33:00,
2013-06-12 05:11:00,53.0,47.0,-100.00,North,-999,-999.0,-999.0,80,0.00,,,0.00,,2013-06-12 12:11:00,
2013-06-12 05:23:00,53.0,47.0,-100.00,North,-999,-999.0,-999.0,80,0.00,,,0.00,,2013-06-12 12:23:00,
2013-06-12 05:33:00,53.0,47.0,-100.00,North,-999,-999.0,-999.0,80,0.00,,,0.00,,2013-06-12 12:33:00,
2013-06-12 05:42:00,53.0,47.0,-100.00,North,-999,-999.0,-999.0,80,0.00,,,0.00,,2013-06-12 12:42:00,
2013-06-12 05:43:00,53.0,47.0,-100.00,North,-999,-999.0,-999.0,80,0.00,,,0.00,,2013-06-12 12:43:00,
2013-06-12 06:22:00,53.0,47.0,-100.00,North,-999,-999.0,-999.0,80,0.00,,,0.00,,2013-06-12 13:22:00,
2013-06-12 06:32:00,53.0,47.0,-100.00,North,-999,-999.0,-999.0,80,0.00,,,0.00,,2013-06-12 13:32:00,
2013-06-12 06:43:00,53.0,48.0,-100.00,North,-999,-999.0,-999.0,81,0.00,,,0.00,,2013-06-12 13:43:00,
2013-06-12 07:11:00,53.0,48.0,-100.00,North,-999,-999.0,-999.0,81,0.00,,,0.00,,2013-06-12 14:11:00,
2013-06-12 07:23:00,53.0,48.0,-100.00,North,-999,-999.0,-999.0,81,0.00,,,0.00,,2013-06-12 14:23:00,
2013-06-12 07:33:00,53.0,48.0,-100.00,North,-999,-999.0,-999.0,81,0.00,,,0.00,,2013-06-12 14:33:00,
2013-06-12 07:43:00,56.0,48.0,-100.00,North,-999,-999.0,-999.0,75,0.00,,,0.00,,2013-06-12 14:43:00,
2013-06-12 08:12:00,56.0,48.0,-100.00,North,-999,-999.0,-999.0,75,0.00,,,0.00,,2013-06-12 15:12:00,
2013-06-12 08:23:00,56.0,48.0,-100.00,North,-999,-999.0,-999.0,75,0.00,,,0.00,,2013-06-12 15:23:00,
2013-06-12 08:32:00,56.0,48.0,-100.00,North,-999,-999.0,-999.0,75,0.00,,,0.00,,2013-06-12 15:32:00,
2013-06-12 08:43:00,58.0,47.0,-100.00,North,-999,-999.0,-999.0,67,0.00,,,0.00,,2013-06-12 15:43:00,
2013-06-12 09:11:00,58.0,47.0,-100.00,North,-999,-999.0,-999.0,67,0.00,,,0.00,,2013-06-12 16:11:00,
2013-06-12 09:21:00,58.0,47.0,-100.00,North,-999,-999.0,-999.0,67,0.00,,,0.00,,2013-06-12 16:21:00,
2013-06-12 09:32:00,58.0,47.0,-100.00,North,-999,-999.0,-999.0,67,0.00,,,0.00,,2013-06-12 16:32:00,
2013-06-12 10:11:00,61.0,48.0,-100.00,North,-999,-999.0,-999.0,61,0.00,,,0.00,,2013-06-12 17:11:00,
2013-06-12 10:22:00,61.0,48.0,-100.00,North,-999,-999.0,-999.0,61,0.00,,,0.00,,2013-06-12 17:22:00,
2013-06-12 10:33:00,61.0,48.0,-100.00,North,-999,-999.0,-999.0,61,0.00,,,0.00,,2013-06-12 17:33:00,
2013-06-12 10:42:00,61.0,48.0,-100.00,North,-999,-999.0,-999.0,61,0.00,,,0.00,,2013-06-12 17:42:00,
2013-06-12 10:43:00,62.0,47.0,-100.00,North,-999,-999.0,-999.0,57,0.00,,,0.00,,2013-06-12 17:43:00,
2013-06-12 11:12:00,62.0,47.0,-100.00,North,-999,-999.0,-999.0,57,0.00,,,0.00,,2013-06-12 18:12:00,
2013-06-12 11:22:00,62.0,47.0,-100.00,North,-999,-999.0,-999.0,57,0.00,,,0.00,,2013-06-12 18:22:00,
2013-06-12 11:32:00,62.0,47.0,-100.00,North,-999,-999.0,-999.0,57,0.00,,,0.00,,2013-06-12 18:32:00,
2013-06-12 12:11:00,64.0,48.0,-100.00,North,-999,-999.0,-999.0,55,0.00,,,0.00,,2013-06-12 19:11:00,
2013-06-12 12:22:00,64.0,48.0,-100.00,North,-999,-999.0,-999.0,55,0.00,,,0.00,,2013-06-12 19:22:00,
2013-06-12 12:32:00,64.0,48.0,-100.00,North,-999,-999.0,-999.0,55,0.00,,,0.00,,2013-06-12 19:32:00,
2013-06-12 12:42:00,64.0,48.0,-100.00,North,-999,-999.0,-999.0,55,0.00,,,0.00,,2013-06-12 19:42:00,
2013-06-12 13:01:00,65.0,48.0,-100.00,North,-999,-999.0,-999.0,54,0.00,,,0.00,,2013-06-12 20:01:00,
2013-06-12 13:11:00,65.0,48.0,-100.00,North,-999,-999.0,-999.0,54,0.00,,,0.00,,2013-06-12 20:11:00,
2013-06-12 13:43:00,64.0,49.0,-100.00,North,-999,-999.0,-999.0,57,0.00,,,0.00,,2013-06-12 20:43:00,
2013-06-12 14:11:00,64.0,49.0,-100.00,North,-999,-999.0,-999.0,57,0.00,,,0.00,,2013-06-12 21:11:00,
2013-06-12 14:21:00,64.0,49.0,-100.00,North,-999,-999.0,-999.0,57,0.00,,,0.00,,2013-06-12 21:21:00,
2013-06-12 14:33:00,64.0,49.0,-100.00,North,-999,-999.0,-999.0,57,0.00,,,0.00,,2013-06-12 21:33:00,
2013-06-12 14:43:00,65.0,49.0,-100.00,North,-999,-999.0,-999.0,56,0.00,,,0.00,,2013-06-12 21:43:00,
2013-06-12 15:11:00,65.0,49.0,-100.00,North,-999,-999.0,-999.0,56,0.00,,,0.00,,2013-06-12 22:11:00,
2013-06-12 15:22:00,65.0,49.0,-100.00,North,-999,-999.0,-999.0,56,0.00,,,0.00,,2013-06-12 22:22:00,
2013-06-12 15:32:00,65.0,49.0,-100.00,North,-999,-999.0,-999.0,56,0.00,,,0.00,,2013-06-12 22:32:00,
2013-06-12 16:11:00,64.0,47.0,-100.00,North,-999,-999.0,-999.0,54,0.00,,,0.00,,2013-06-12 23:11:00,
2013-06-12 16:22:00,64.0,47.0,-100.00,North,-999,-999.0,-999.0,54,0.00,,,0.00,,2013-06-12 23:22:00,
2013-06-12 16:32:00,64.0,47.0,-100.00,North,-999,-999.0,-999.0,54,0.00,,,0.00,,2013-06-12 23:32:00,
2013-06-12 16:42:00,64.0,47.0,-100.00,North,-999,-999.0,-999.0,54,0.00,,,0.00,,2013-06-12 23:42:00,
2013-06-12 17:11:00,62.0,47.0,-100.00,North,-999,-999.0,-999.0,58,0.00,,,0.00,,2013-06-13 00:11:00,
2013-06-12 17:22:00,62.0,47.0,-100.00,North,-999,-999.0,-999.0,58,0.00,,,0.00,,2013-06-13 00:22:00,
2013-06-12 17:32:00,62.0,47.0,-100.00,North,-999,-999.0,-999.0,58,0.00,,,0.00,,2013-06-13 00:32:00,
2013-06-12 17:42:00,62.0,47.0,-100.00,North,-999,-999.0,-999.0,58,0.00,,,0.00,,2013-06-13 00:42:00,
2013-06-12 18:12:00,63.0,47.0,-100.00,North,-999,-999.0,-999.0,57,0.00,,,0.00,,2013-06-13 01:12:00,
2013-06-12 18:22:00,63.0,47.0,-100.00,North,-999,-999.0,-999.0,57,0.00,,,0.00,,2013-06-13 01:22:00,
2013-06-12 18:32:00,63.0,47.0,-100.00,North,-999,-999.0,-999.0,57,0.00,,,0.00,,2013-06-13 01:32:00,
2013-06-12 18:42:00,63.0,47.0,-100.00,North,-999,-999.0,-999.0,57,0.00,,,0.00,,2013-06-13 01:42:00,
2013-06-12 19:11:00,61.0,47.0,-100.00,North,-999,-999.0,-999.0,60,0.00,,,0.00,,2013-06-13 02:11:00,
2013-06-12 19:22:00,61.0,47.0,-100.00,North,-999,-999.0,-999.0,60,0.00,,,0.00,,2013-06-13 02:22:00,
2013-06-12 19:33:00,61.0,47.0,-100.00,North,-999,-999.0,-999.0,60,0.00,,,0.00,,2013-06-13 02:33:00,
2013-06-12 19:42:00,61.0,47.0,-100.00,North,-999,-999.0,-999.0,60,0.00,,,0.00,,2013-06-13 02:42:00,
2013-06-12 20:11:00,59.0,47.0,-100.00,North,-999,-999.0,-999.0,64,0.00,,,0.00,,2013-06-13 03:11:00,
2013-06-12 20:22:00,59.0,47.0,-100.00,North,-999,-999.0,-999.0,64,0.00,,,0.00,,2013-06-13 03:22:00,
2013-06-12 20:33:00,59.0,47.0,-100.00,North,-999,-999.0,-999.0,64,0.00,,,0.00,,2013-06-13 03:33:00,
2013-06-12 20:42:00,59.0,47.0,-100.00,North,-999,-999.0,-999.0,64,0.00,,,0.00,,2013-06-13 03:42:00,
2013-06-12 20:43:00,56.0,47.0,-100.00,North,-999,-999.0,-999.0,71,0.00,,,-99.99,,2013-06-13 03:43:00,
2013-06-12 21:01:00,56.0,47.0,-100.00,North,-999,-999.0,-999.0,71,0.00,,,-99.99,,2013-06-13 04:01:00,
2013-06-12 21:11:00,56.0,47.0,-100.00,North,-999,-999.0,-999.0,71,0.00,,,-99.99,,2013-06-13 04:11:00,
2013-06-12 21:22:00,56.0,47.0,-100.00,North,-999,-999.0,-999.0,71,0.00,,,-99.99,,2013-06-13 04:22:00,
2013-06-12 21:32:00,56.0,47.0,-100.00,North,-999,-999.0,-999.0,71,0.00,,,-99.99,,2013-06-13 04:32:00,
2013-06-12 22:11:00,55.0,47.0,-100.00,North,-999,-999.0,-999.0,75,0.00,,,0.00,,2013-06-13 05:11:00,
2013-06-12 22:23:00,55.0,47.0,-100.00,North,-999,-999.0,-999.0,75,0.00,,,0.00,,2013-06-13 05:23:00,
2013-06-12 22:33:00,55.0,47.0,-100.00,North,-999,-999.0,-999.0,75,0.00,,,0.00,,2013-06-13 05:33:00,
2013-06-12 22:42:00,55.0,47.0,-100.00,North,-999,-999.0,-999.0,75,0.00,,,0.00,,2013-06-13 05:42:00,
2013-06-12 22:43:00,54.0,47.0,-100.00,North,-999,-999.0,-999.0,78,0.00,,,0.00,,2013-06-13 05:43:00,
2013-06-12 23:11:00,54.0,47.0,-100.00,North,-999,-999.0,-999.0,78,0.00,,,0.00,,2013-06-13 06:11:00,
2013-06-12 23:22:00,54.0,47.0,-100.00,North,-999,-999.0,-999.0,78,0.00,,,0.00,,2013-06-13 06:22:00,
2013-06-12 23:33:00,54.0,47.0,-100.00,North,-999,-999.0,-999.0,78,0.00,,,0.00,,2013-06-13 06:33:00,